Wind_Speed
10 10 10 10 11 12 15 18 19 21 24 28 30 31 33 34 36 38 39 42 42 44 48 49 50 54 58 65 73 79 87 95 101 107 108 107 106 106 106 104 105 104 104 105 105
12 12 13 14 15 16 18 20 21 23 26 30 33 35 35 34 38 40 43 43 45 46 49 52 60 64 71 75 79 84 95 106 111 115 120 120 119 117 112 102 107 106 103 105 107
16 17 17 18 19 20 20 21 24 26 29 32 35 35 31 34 40 44 44 42 44 48 48 57 61 68 75 80 86 94 103 113 121 123 125 123 120 111 105 104 96 98 102 102 106
21 21 21 21 21 22 23 26 28 30 32 34 32 28 31 36 40 42 44 45 46 49 55 58 65 72 79 82 88 102 110 121 126 125 126 115 106 99 93 89 88 87 92 92 96
17 20 22 22 22 23 25 26 28 30 32 28 24 27 33 39 40 43 48 48 49 50 58 64 69 78 85 89 97 107 117 123 124 118 103 93 88 83 85 81 80 80 81 87 92
17 17 17 17 18 19 20 23 25 27 24 21 27 30 36 38 40 42 46 47 49 57 63 64 82 88 92 90 97 103 116 121 110 93 85 81 79 75 78 80 82 82 81 81 85
17 18 18 17 18 19 20 22 25 23 20 25 30 35 38 39 41 44 39 49 57 58 63 76 85 90 91 92 97 109 116 106 95 85 78 71 73 66 67 71 76 80 82 80 84
21 19 18 17 20 20 21 23 24 20 24 27 33 37 38 38 41 47 51 56 62 61 73 80 83 97 96 95 102 106 105 96 92 81 73 65 64 55 53 58 65 72 77 78 82
26 24 21 20 20 20 21 22 21 22 26 29 35 38 39 40 39 43 51 60 60 67 80 92 102 106 103 100 98 101 99 93 86 78 73 61 59 56 49 45 54 61 69 74 78
21 22 22 19 17 16 19 18 21 25 28 33 37 35 40 41 43 51 59 63 70 73 84 95 106 115 110 109 103 101 99 93 85 73 68 58 55 50 53 47 44 53 63 69 74
11 10 9 11 11 12 13 18 24 28 32 34 36 39 38 38 49 57 62 71 74 77 92 103 112 118 125 117 108 105 102 91 87 73 61 55 47 42 46 47 44 45 55 63 67
7 6 3 6 9 14 19 21 26 30 33 37 39 40 41 49 53 62 67 69 66 84 91 105 117 117 129 131 118 111 105 97 85 77 65 59 48 36 35 42 44 39 46 56 61
13 11 9 12 16 19 21 26 29 33 34 38 43 42 44 47 53 60 67 66 73 87 98 107 119 124 134 133 134 120 113 104 89 76 65 56 51 40 30 37 39 36 33 50 58
16 14 15 17 21 24 26 27 31 34 36 39 41 45 47 51 59 63 70 72 80 93 102 110 122 131 137 137 137 132 122 109 94 80 69 59 54 42 28 31 36 30 31 41 55
18 18 19 20 23 26 27 31 34 34 36 44 47 49 55 59 64 68 74 79 85 97 108 114 125 133 139 139 138 145 129 111 100 89 75 62 54 48 34 22 28 28 21 35 50
21 22 24 26 25 28 29 31 34 34 41 47 49 55 59 62 67 72 79 81 86 99 110 118 127 134 141 142 142 142 138 118 105 92 80 66 53 46 41 29 22 21 20 28 42
22 25 28 28 28 29 30 34 36 40 42 47 53 56 58 64 67 73 77 81 87 98 110 120 127 135 141 146 144 148 139 122 110 99 84 67 58 50 37 30 27 21 19 27 36
23 25 29 30 30 33 33 34 38 43 47 52 56 58 62 64 69 74 82 82 93 104 115 123 130 137 144 147 151 158 136 125 111 106 92 75 62 52 46 34 25 25 19 26 33
26 28 31 35 34 35 37 38 40 45 48 54 55 60 62 67 73 80 84 89 94 107 117 125 131 138 147 147 152 155 142 128 112 105 96 74 64 52 43 38 27 20 21 23 30
29 31 33 36 37 37 39 40 43 49 52 55 57 61 64 68 78 81 84 92 100 110 114 125 134 140 148 149 152 152 147 133 118 102 95 81 66 52 44 37 30 25 18 20 28
32 34 35 37 40 38 41 44 47 49 54 57 58 62 66 72 77 83 85 95 102 110 116 124 134 142 147 153 152 150 150 134 122 108 96 83 70 54 45 35 24 21 17 18 24
35 36 36 39 42 42 44 47 49 49 56 59 61 63 67 74 80 84 87 95 105 112 119 124 136 140 148 148 149 150 151 135 124 110 98 87 73 60 51 40 30 20 17 14 19
37 38 36 39 43 45 46 47 49 51 58 60 62 62 69 77 80 87 93 95 105 113 119 129 135 140 146 151 151 154 150 141 125 113 99 89 74 64 56 47 41 31 19 14 15
40 38 37 40 43 45 46 49 50 51 60 62 63 65 72 76 81 88 94 100 106 113 119 125 133 147 151 152 152 153 151 147 128 116 104 91 74 65 57 48 41 35 25 13 12
41 41 38 43 44 44 47 51 51 51 60 62 65 66 71 77 83 90 91 100 106 113 119 125 131 144 145 151 152 152 150 146 131 120 106 96 82 68 56 50 39 26 18 13 9
41 41 38 44 44 48 50 51 49 53 60 63 67 68 72 78 84 87 94 96 104 113 118 126 131 143 145 149 155 150 146 148 132 123 112 101 87 73 62 53 46 32 19 12 7
43 41 41 41 42 46 49 50 52 56 60 63 68 71 77 82 86 87 91 100 105 112 120 125 135 142 148 150 153 154 143 146 130 124 112 102 85 70 59 49 37 31 23 16 7
Wind_Direction
297 299 294 294 300 304 311 308 312 312 313 316 319 321 320 321 322 326 327 323 319 315 313 314 311 309 306 306 301 299 296 291 288 287 288 288 288 285 279 271 267 261 257 256 257
288 293 294 286 291 297 303 303 309 308 310 313 317 318 318 321 322 322 322 321 320 319 317 317 318 315 315 311 305 300 296 293 292 295 296 298 297 293 288 281 273 264 259 256 252
284 283 287 288 287 289 293 299 302 302 307 311 315 318 321 322 322 324 326 322 317 317 317 320 319 317 315 307 302 297 295 294 295 298 301 299 296 292 285 278 271 265 261 254 249
279 279 281 282 283 286 288 289 295 304 307 313 315 322 320 324 328 325 321 320 320 320 322 323 325 321 318 316 309 300 297 297 302 304 303 297 292 287 281 275 269 260 254 249 247
284 276 273 277 282 283 286 295 301 303 309 315 321 321 327 329 329 331 327 326 328 330 326 327 327 326 322 312 309 306 304 304 307 307 303 297 291 285 278 273 266 260 253 248 243
296 296 291 288 290 295 303 307 308 313 319 319 319 329 326 327 330 333 333 333 330 332 333 331 336 334 330 327 320 317 312 314 313 312 306 300 291 283 276 269 264 258 248 241 241
295 292 292 291 291 301 303 307 312 320 318 324 328 328 327 333 333 336 340 338 340 339 339 338 335 341 339 333 330 323 322 319 319 317 311 304 292 284 273 265 258 255 249 240 232
286 283 287 295 291 296 302 307 312 316 325 331 333 330 332 333 336 334 339 340 342 342 342 341 344 349 345 342 334 329 327 327 325 324 316 310 300 292 275 264 257 252 247 240 230
279 276 276 284 298 297 300 304 314 322 334 336 332 336 333 331 335 339 337 343 343 342 348 356 358 353 351 346 343 339 337 334 331 331 321 318 307 299 287 267 256 251 247 241 233
285 269 270 285 296 299 304 312 324 339 340 331 334 336 332 338 339 341 344 345 349 348 353 355 358 356 356 354 348 344 344 342 338 334 325 317 307 301 291 281 262 248 244 239 232
299 296 274 282 299 309 328 333 344 345 337 340 335 332 336 339 341 343 343 347 350 353 359 0 3 360 2 358 352 350 349 348 341 337 332 321 316 303 289 281 271 251 243 241 232
38 39 10 333 333 344 347 345 343 339 338 339 337 337 338 342 348 343 347 347 351 351 360 0 2 3 5 3 357 355 353 351 348 344 341 329 330 320 294 283 277 263 243 241 236
66 48 24 6 355 350 351 352 343 339 339 341 343 343 347 348 341 344 350 349 349 353 4 1 3 4 5 3 4 360 359 355 354 351 344 337 334 333 311 288 281 272 247 237 236
36 25 10 358 356 355 352 348 344 341 346 347 352 352 346 343 346 348 349 349 348 349 1 4 4 3 5 5 5 4 2 357 357 354 351 345 338 336 323 297 289 274 251 232 235
14 6 358 351 351 352 351 349 347 350 354 358 353 351 350 351 349 350 350 353 352 355 3 4 3 1 6 5 4 5 3 360 359 357 355 351 343 339 338 311 288 286 249 232 234
354 353 353 352 349 351 346 345 350 349 350 352 349 352 353 353 353 351 350 356 355 355 360 5 5 3 7 4 4 2 3 5 1 358 358 352 350 344 338 332 304 281 263 226 230
343 344 346 346 345 342 341 341 347 349 352 349 351 349 351 351 351 351 352 357 358 359 0 3 4 4 6 6 4 2 3 4 4 359 2 356 352 346 343 334 320 301 257 237 223
332 337 344 345 338 337 331 336 340 342 346 347 348 348 351 350 351 349 351 356 355 1 3 3 3 2 2 3 5 6 4 5 5 1 360 359 357 350 344 342 328 306 277 243 231
326 331 338 341 335 335 332 332 334 338 342 345 348 347 348 350 348 349 348 357 355 0 3 4 1 2 1 1 4 4 4 4 3 6 358 3 358 353 344 336 334 309 285 252 236
326 327 336 336 336 333 331 332 332 338 339 345 346 348 349 349 348 348 352 357 359 2 1 3 1 1 2 2 4 4 6 3 2 6 2 360 358 355 350 345 329 324 294 259 236
318 326 329 330 333 334 333 331 333 337 340 344 346 347 347 347 349 348 349 356 358 1 359 1 2 358 3 1 4 2 6 5 3 2 5 1 358 356 351 345 332 314 294 261 236
312 322 324 330 333 332 336 334 338 337 340 343 345 347 346 346 347 347 353 355 358 360 359 358 1 359 3 1 4 3 4 5 4 2 5 2 0 357 352 348 351 339 324 287 245
308 317 323 331 332 334 334 335 336 339 340 341 344 346 346 346 347 352 354 354 357 358 359 357 357 360 5 5 5 3 6 5 5 4 3 4 1 1 356 353 351 353 336 305 253
302 315 326 325 328 332 331 332 334 338 339 341 345 344 344 346 347 350 352 356 357 359 358 358 356 359 1 3 4 2 5 5 5 4 3 5 3 2 359 357 356 347 338 317 261
297 314 322 322 324 328 328 329 333 335 338 340 341 342 343 346 350 353 350 353 355 357 356 357 359 357 359 1 2 1 1 6 5 4 5 5 3 2 3 358 360 353 332 319 268
301 314 316 317 321 323 325 327 332 335 335 338 340 342 342 344 346 348 349 350 353 353 354 355 358 359 358 1 5 2 1 6 3 4 4 4 1 2 3 360 356 357 341 338 283
301 313 316 319 323 323 325 331 334 334 334 336 339 341 341 343 344 345 346 348 351 351 353 352 356 359 359 2 2 4 1 2 5 3 5 3 3 2 4 360 358 348 357 346 320
Height
10801 10801 10800 10800 10799 10798 10796 10795 10795 10793 10791 10788 10785 10782 10778 10775 10771 10767 10765 10760 10754 10749 10742 10737 10733 10725 10715 10704 10692 10679 10664 10649 10638 10625 10617 10614 10613 10611 10610 10611 10606 10606 10614 10618 10625
10800 10799 10799 10798 10797 10795 10794 10792 10791 10789 10788 10784 10781 10778 10774 10771 10767 10762 10758 10754 10747 10740 10734 10726 10715 10704 10695 10683 10667 10651 10635 10616 10603 10591 10581 10571 10561 10551 10545 10545 10545 10554 10568 10578 10588
10797 10797 10796 10795 10794 10793 10791 10789 10788 10786 10784 10780 10777 10773 10770 10767 10762 10757 10753 10748 10741 10735 10727 10718 10708 10696 10682 10664 10646 10625 10605 10583 10569 10559 10547 10531 10513 10502 10496 10493 10498 10507 10519 10535 10547
10794 10793 10792 10792 10791 10790 10788 10786 10784 10782 10779 10775 10772 10769 10766 10764 10760 10752 10744 10740 10735 10725 10717 10707 10696 10682 10665 10642 10620 10597 10577 10556 10543 10528 10507 10485 10468 10457 10452 10448 10451 10462 10472 10486 10503
10789 10789 10788 10788 10788 10786 10785 10783 10781 10777 10775 10771 10768 10766 10763 10758 10752 10747 10738 10731 10726 10717 10707 10695 10681 10662 10641 10619 10595 10570 10549 10529 10512 10489 10462 10441 10426 10417 10408 10408 10412 10418 10430 10443 10461
10786 10785 10785 10784 10783 10782 10782 10779 10776 10773 10771 10768 10765 10763 10759 10754 10748 10743 10734 10723 10718 10708 10697 10684 10666 10645 10621 10596 10570 10544 10517 10496 10466 10446 10421 10403 10386 10382 10375 10372 10370 10375 10386 10403 10421
10782 10781 10781 10781 10780 10779 10778 10775 10772 10770 10768 10765 10762 10758 10753 10748 10740 10734 10730 10722 10710 10698 10688 10672 10650 10626 10598 10573 10544 10519 10487 10451 10428 10408 10386 10370 10348 10349 10341 10337 10336 10338 10348 10368 10384
10777 10777 10777 10776 10775 10775 10773 10772 10769 10767 10765 10763 10758 10753 10746 10742 10734 10724 10715 10708 10698 10688 10674 10655 10632 10605 10576 10547 10522 10493 10456 10421 10392 10376 10353 10339 10318 10315 10311 10306 10305 10305 10313 10329 10347
10771 10772 10772 10772 10772 10771 10770 10767 10766 10765 10763 10759 10754 10746 10740 10735 10729 10723 10712 10700 10688 10676 10660 10638 10613 10590 10554 10528 10500 10466 10431 10397 10372 10349 10326 10313 10292 10283 10281 10279 10276 10279 10282 10296 10313
10763 10765 10767 10769 10769 10768 10766 10765 10764 10763 10759 10754 10748 10744 10734 10727 10719 10710 10702 10689 10677 10664 10645 10620 10596 10571 10534 10503 10480 10449 10414 10378 10353 10333 10306 10290 10276 10269 10254 10253 10252 10255 10257 10266 10282
10759 10761 10764 10766 10766 10765 10765 10764 10762 10758 10753 10748 10741 10735 10728 10723 10714 10702 10691 10679 10665 10650 10628 10606 10578 10555 10521 10486 10458 10428 10394 10366 10332 10313 10292 10274 10263 10251 10240 10233 10231 10233 10239 10244 10258
10759 10761 10763 10765 10765 10766 10765 10762 10758 10754 10749 10743 10736 10729 10721 10712 10704 10693 10682 10671 10658 10643 10618 10592 10564 10539 10505 10474 10437 10406 10376 10348 10318 10291 10273 10254 10245 10236 10227 10217 10214 10217 10224 10227 10235
10761 10762 10764 10766 10765 10764 10762 10759 10754 10749 10744 10738 10732 10725 10718 10710 10701 10690 10677 10663 10649 10631 10602 10580 10550 10525 10492 10459 10425 10391 10359 10328 10309 10286 10262 10245 10231 10223 10214 10204 10200 10202 10208 10211 10216
10765 10765 10766 10765 10763 10761 10758 10755 10750 10746 10741 10735 10728 10720 10712 10703 10694 10679 10666 10649 10632 10611 10587 10563 10537 10509 10479 10445 10414 10381 10348 10316 10295 10273 10249 10235 10221 10213 10207 10196 10189 10190 10193 10195 10199
10766 10766 10765 10763 10761 10758 10755 10751 10747 10742 10737 10731 10722 10714 10703 10693 10678 10665 10654 10638 10621 10597 10574 10550 10525 10495 10466 10439 10407 10378 10341 10312 10281 10260 10243 10227 10212 10201 10195 10189 10182 10178 10182 10183 10185
10764 10764 10762 10759 10757 10754 10751 10747 10743 10738 10732 10724 10716 10706 10695 10685 10671 10659 10643 10629 10612 10588 10562 10540 10517 10490 10462 10429 10400 10367 10336 10307 10278 10256 10239 10220 10207 10194 10183 10178 10174 10171 10171 10173 10176
10762 10761 10758 10756 10754 10751 10747 10743 10738 10731 10726 10719 10709 10700 10691 10678 10665 10653 10640 10626 10607 10588 10558 10529 10508 10481 10457 10431 10391 10358 10329 10305 10279 10249 10234 10216 10199 10188 10179 10170 10164 10162 10161 10161 10163
10760 10758 10756 10754 10751 10747 10742 10738 10732 10726 10719 10711 10702 10692 10682 10671 10659 10645 10629 10613 10596 10574 10550 10520 10496 10468 10440 10416 10388 10354 10323 10296 10268 10244 10224 10207 10194 10180 10168 10164 10160 10155 10152 10152 10154
10757 10755 10753 10750 10746 10741 10737 10731 10727 10722 10716 10707 10696 10687 10675 10662 10648 10635 10621 10602 10584 10564 10540 10513 10488 10463 10436 10407 10382 10354 10319 10291 10270 10250 10226 10210 10192 10177 10164 10156 10153 10148 10144 10143 10144
10753 10751 10749 10745 10741 10736 10731 10726 10721 10715 10708 10700 10690 10679 10667 10653 10641 10626 10611 10593 10575 10552 10531 10511 10484 10460 10433 10403 10377 10349 10317 10289 10262 10247 10227 10205 10192 10176 10164 10151 10144 10138 10136 10134 10134
10748 10747 10744 10740 10735 10731 10727 10721 10715 10709 10702 10693 10683 10672 10660 10647 10633 10619 10604 10589 10568 10545 10522 10505 10485 10456 10430 10402 10375 10348 10318 10290 10259 10236 10221 10204 10188 10174 10162 10153 10143 10134 10128 10125 10124
10743 10742 10739 10734 10730 10726 10721 10716 10710 10703 10694 10685 10675 10664 10652 10641 10626 10612 10597 10580 10561 10541 10517 10497 10483 10458 10433 10403 10372 10344 10316 10287 10261 10238 10217 10197 10184 10170 10158 10146 10137 10129 10123 10119 10117
10738 10736 10733 10730 10725 10721 10716 10710 10704 10696 10688 10679 10668 10657 10645 10632 10619 10603 10588 10574 10555 10536 10515 10488 10468 10461 10435 10404 10367 10342 10314 10289 10262 10240 10218 10200 10180 10162 10152 10140 10129 10125 10118 10113 10112
10731 10730 10728 10724 10719 10715 10709 10703 10698 10690 10682 10672 10661 10651 10639 10625 10611 10595 10579 10568 10549 10531 10513 10493 10464 10438 10412 10384 10364 10338 10311 10289 10265 10240 10217 10201 10187 10166 10149 10141 10132 10124 10115 10110 10108
10724 10724 10721 10717 10712 10707 10702 10696 10691 10684 10675 10665 10655 10644 10633 10621 10609 10593 10578 10560 10543 10528 10509 10495 10472 10440 10416 10395 10371 10345 10316 10291 10265 10240 10221 10200 10182 10168 10153 10142 10133 10126 10115 10109 10108
10718 10717 10714 10710 10705 10701 10696 10690 10684 10677 10669 10659 10648 10637 10626 10614 10600 10587 10574 10558 10541 10524 10508 10493 10473 10446 10422 10400 10376 10346 10319 10292 10264 10243 10217 10200 10182 10166 10152 10141 10130 10124 10115 10111 10108
10709 10710 10707 10703 10698 10694 10689 10683 10676 10670 10662 10652 10642 10632 10620 10608 10594 10579 10565 10550 10536 10521 10506 10490 10471 10449 10426 10405 10381 10356 10323 10295 10272 10246 10225 10207 10194 10176 10161 10148 10139 10126 10119 10115 10112